Content
SEND FEEDBACK

Daily
Averages
Monthly
Summary
United States of America

ANN ARBOR, MICHIGAN


Home > North America > United States > Michigan
Elevation: 759 feet     Latitude: 42 17N     Longitude: 083 43W

WEATHER
 
SELECT A DAY
Number of Records: 209,213;   Date Range: 1/1/95 - 12/27/14
 
SHARE

PRINT THIS DATA

[ ← Previous Day ]
WEATHER ALMANAC - OCTOBER 8, 2013
[ Next Day → ]
[ °C ]   °F
We're sorry. There is no daily almanac available for Ann Arbor, Michigan on October 8, 2013.
WEATHER BY HOUR - OCTOBER 8, 2013
[ °C ]   °F
Local TimeTemperatureDewpointHumidityBarometerVisibilityWind DirectionWind SpeedGust SpeedPrecipitationEventsConditions
12:37 AM39.2 °F37.4 °F93 %30.13 in1.5 miCalmClear
12:39 AM39.2 °F37.4 °F93 %30.13 in0.8 miCalmClear
12:53 AM37.9 °F37.0 °F97 %30.14 in0.2 miCalmFogFog
1:03 AM37.4 °F37.4 °F100 %30.14 in0.2 miCalmFogFog
1:38 AM37.4 °F37.4 °F100 %30.14 in0.2 miCalmFogFog
1:45 AM37.4 °F35.6 °F93 %30.14 in0.2 miCalmFogFog
1:53 AM37.0 °F37.0 °F100 %30.15 in0.2 miCalmFogFog
2:10 AM37.4 °F35.6 °F93 %30.15 in2.0 miCalmPartly Cloudy
2:20 AM37.4 °F37.4 °F100 %30.15 in1.2 miCalmPartly Cloudy
2:22 AM37.4 °F37.4 °F100 %30.15 in0.8 miCalmMist
2:40 AM37.4 °F35.6 °F93 %30.15 in0.5 miSSW (210°)3.5 mphFogFog
2:48 AM35.6 °F35.6 °F100 %30.15 in1.2 miCalmPartly Cloudy
2:51 AM35.6 °F33.8 °F93 %30.16 in3.0 miCalmPartly Cloudy
2:53 AM36.0 °F34.0 °F93 %30.17 in7.0 miCalmPartly Cloudy
3:06 AM37.4 °F37.4 °F100 %30.16 in2.0 miCalmClear
3:16 AM35.6 °F35.6 °F100 %30.16 in6.0 miWest (260°)3.5 mphClear
3:41 AM37.4 °F35.6 °F93 %30.17 in1.8 miCalmClear
3:45 AM35.6 °F35.6 °F100 %30.17 in0.8 miWest (270°)3.5 mphClear
3:53 AM37.0 °F36.0 °F96 %30.18 in0.5 miCalmFogFog
4:38 AM35.6 °F35.6 °F100 %30.18 in0.5 miCalmFogFog
4:53 AM33.1 °F32.0 °F96 %30.19 in0.2 miCalmFogFog
5:15 AM37.4 °F35.6 °F93 %30.19 in1.0 miCalmMist
5:17 AM37.4 °F35.6 °F93 %30.19 in1.8 miCalmPartly Cloudy
5:24 AM37.4 °F35.6 °F93 %30.19 in10.0 miCalmPartly Cloudy
5:34 AM35.6 °F33.8 °F93 %30.19 in1.8 miCalmPartly Cloudy
5:36 AM35.6 °F33.8 °F93 %30.19 in1.0 miCalmMist
5:43 AM35.6 °F35.6 °F100 %30.19 in0.5 miCalmFogFog
5:53 AM35.1 °F34.0 °F96 %30.21 in0.5 miCalmFogFog
6:10 AM35.6 °F35.6 °F100 %30.20 in1.5 miCalmOvercast
6:18 AM35.6 °F35.6 °F100 %30.20 in0.8 miCalmMist
6:48 AM35.6 °F33.8 °F93 %30.21 in0.5 miCalmFogFog
6:53 AM34.0 °F33.1 °F96 %30.23 in0.5 miCalmFogFog
7:25 AM35.6 °F33.8 °F93 %30.23 in0.2 miCalmFogFog
7:42 AM35.6 °F35.6 °F100 %30.23 in1.0 miCalmMist
7:45 AM35.6 °F33.8 °F93 %30.24 in1.5 miCalmScattered Clouds
7:53 AM36.0 °F35.1 °F97 %30.26 in1.0 miCalmMist
8:00 AM35.6 °F35.6 °F100 %30.24 in0.2 miCalmFogFog
8:20 AM35.6 °F35.6 °F100 %30.25 in1.0 miCalmClear
8:22 AM35.6 °F35.6 °F100 %30.25 in5.0 miCalmClear
8:53 AM42.1 °F41.0 °F96 %30.28 in7.0 miCalmClear
9:53 AM54.0 °F46.9 °F77 %30.29 in10.0 miWSW (250°)5.8 mphClear
10:53 AM59.0 °F44.1 °F58 %30.29 in10.0 miSSW (200°)8.1 mphClear
11:53 AM62.1 °F43.0 °F50 %30.30 in10.0 miSouth (190°)9.2 mphClear
12:53 PM64.0 °F42.1 °F45 %30.29 in10.0 miESE (120°)6.9 mphClear
1:53 PM66.0 °F42.1 °F42 %30.27 in10.0 miVariable4.6 mphClear
2:53 PM66.9 °F42.1 °F40 %30.26 in10.0 miSouth (170°)6.9 mphClear
3:53 PM66.9 °F41.0 °F39 %30.25 in10.0 miSSE (160°)10.4 mphClear
4:53 PM66.0 °F39.0 °F37 %30.25 in10.0 miSE (140°)6.9 mphClear
5:53 PM64.0 °F41.0 °F43 %30.25 in10.0 miSE (130°)6.9 mphClear
6:53 PM59.0 °F42.1 °F53 %30.26 in10.0 miESE (120°)4.6 mphClear
7:53 PM55.0 °F43.0 °F64 %30.27 in10.0 miESE (120°)5.8 mphClear
8:53 PM53.1 °F42.1 °F66 %30.28 in10.0 miCalmClear
9:53 PM52.0 °F44.1 °F74 %30.29 in10.0 miCalmClear
10:53 PM45.0 °F42.1 °F90 %30.29 in10.0 miCalmClear
11:53 PM42.1 °F41.0 °F96 %30.28 in9.0 miCalmClear
Hourly data recorded from KARB, located miles away from Ann Arbor, Michigan







STORIES FROM OUR PARTNERS